Satellite: WO-39
Catalog number: 26061
Epoch time:      100354.86763618
Element set:     137 
Inclination:      100.1923 deg
RA of node:       250.5971 deg
Eccentricity:    0.0036694
Arg of perigee:   349.3662 deg
Mean anomaly:      10.6737 deg
Mean motion:   14.35178812 rev/day
Decay rate:    9.8700E-006 rev/day^2
Epoch rev:            4700
Checksum:              316

Satellite: ISS
Catalog number: 25544
Epoch time:      100356.22560819
Element set:     408 
Inclination:       51.5768 deg
RA of node:       269.6773 deg
Eccentricity:    0.0007465
Arg of perigee:   252.0191 deg
Mean anomaly:     204.8902 deg
Mean motion:   15.65754528 rev/day
Decay rate:    3.5827E-004 rev/day^2
Epoch rev:           11923
Checksum:              321

Satellite: POSAT
Catalog number: 22829
Epoch time:      100356.15351165
Element set:     860 
Inclination:       98.3776 deg
RA of node:        47.1902 deg
Eccentricity:    0.0011013
Arg of perigee:    55.8388 deg
Mean anomaly:     304.3857 deg
Mean motion:   14.28924172 rev/day
Decay rate:    3.2099E-006 rev/day^2
Epoch rev:           37728
Checksum:              318

Satellite: JAWSAT
Catalog number: 26065
Epoch time:      100354.56108656
Element set:     107 
Inclination:      100.1937 deg
RA of node:       250.0174 deg
Eccentricity:    0.0038002
Arg of perigee:   352.7068 deg
Mean anomaly:       7.3554 deg
Mean motion:   14.34429981 rev/day
Decay rate:    3.9299E-006 rev/day^2
Epoch rev:            4693
Checksum:              395

Satellite: OPAL
Catalog number: 26062
Epoch time:      100354.74082842
Element set:     403 
Inclination:      100.2264 deg
RA of node:       261.1051 deg
Eccentricity:    0.0023788
Arg of perigee:   351.8068 deg
Mean anomaly:       8.2803 deg
Mean motion:   14.80448475 rev/day
Decay rate:    2.5475E-003 rev/day^2
Epoch rev:            4750
Checksum:              276

Satellite: OCS
Catalog number: 26063
Epoch time:      100354.75221524
Element set:     110 
Inclination:      100.1944 deg
RA of node:       250.2280 deg
Eccentricity:    0.0037314
Arg of perigee:   350.8802 deg
Mean anomaly:       9.1697 deg
Mean motion:   14.34492745 rev/day
Decay rate:    3.6100E-006 rev/day^2
Epoch rev:            4697
Checksum:              266

Satellite: UNK3
Catalog number: 26093
Epoch time:      100354.71512587
Element set:     154 
Inclination:      100.1847 deg
RA of node:       250.4856 deg
Eccentricity:    0.0037385
Arg of perigee:   351.2165 deg
Mean anomaly:       8.8438 deg
Mean motion:   14.36071326 rev/day
Decay rate:    3.6379E-005 rev/day^2
Epoch rev:            4481
Checksum:              304

Satellite: UNK4
Catalog number: 26094
Epoch time:      100355.15341185
Element set:     102 
Inclination:      100.1892 deg
RA of node:       250.7433 deg
Eccentricity:    0.0037260
Arg of perigee:   350.8318 deg
Mean anomaly:       9.2180 deg
Mean motion:   14.35223170 rev/day
Decay rate:    1.2769E-005 rev/day^2
Epoch rev:            4434
Checksum:              261

Satellite: SAUDISAT 1A
Catalog number: 26548
Epoch time:      100354.98797794
Element set:     44 
Inclination:       64.5598 deg
RA of node:       293.1538 deg
Eccentricity:    0.0010580
Arg of perigee:    13.8766 deg
Mean anomaly:     346.2676 deg
Mean motion:   14.75957167 rev/day
Decay rate:    2.3040E-005 rev/day^2
Epoch rev:            1247
Checksum:              341

Satellite: UNISAT
Catalog number: 26547
Epoch time:      100354.87654471
Element set:     46 
Inclination:       64.5616 deg
RA of node:       294.6247 deg
Eccentricity:    0.0018137
Arg of perigee:    67.3369 deg
Mean anomaly:     292.9679 deg
Mean motion:   14.73219710 rev/day
Decay rate:    3.3219E-005 rev/day^2
Epoch rev:            1245
Checksum:              326

Satellite: SAUDISAT 1B
Catalog number: 26549
Epoch time:      100355.30881718
Element set:     40 
Inclination:       64.5518 deg
RA of node:       292.9917 deg
Eccentricity:    0.0014765
Arg of perigee:    59.2183 deg
Mean anomaly:     301.0372 deg
Mean motion:   14.73852936 rev/day
Decay rate:    1.8569E-005 rev/day^2
Epoch rev:            1251
Checksum:              314

Satellite: TIUNGSAT-1
Catalog number: 26545
Epoch time:      100348.81497596
Element set:     46 
Inclination:       64.5622 deg
RA of node:       312.4596 deg
Eccentricity:    0.0011305
Arg of perigee:    43.0051 deg
Mean anomaly:     317.1930 deg
Mean motion:   14.74735616 rev/day
Decay rate:    1.5020E-005 rev/day^2
Epoch rev:            1155
Checksum:              277

Satellite: MEGSAT-1
Catalog number: 26546
Epoch time:      100300.90113007
Element set:     44 
Inclination:       64.5565 deg
RA of node:        98.4503 deg
Eccentricity:    0.0004641
Arg of perigee:    22.5030 deg
Mean anomaly:     337.6284 deg
Mean motion:   14.76095605 rev/day
Decay rate:    2.0170E-005 rev/day^2
Epoch rev:             450
Checksum:              253

Satellite: DNEPR-1 R/B
Catalog number: 26550
Epoch time:      100300.95678734
Element set:     48 
Inclination:       64.5580 deg
RA of node:       111.6189 deg
Eccentricity:    0.0521266
Arg of perigee:   122.5374 deg
Mean anomaly:     242.7151 deg
Mean motion:   13.78368992 rev/day
Decay rate:    7.2100E-006 rev/day^2
Epoch rev:             421
Checksum:              293

Satellite: DNEPR-1 DEB
Catalog number: 26551
Epoch time:      100300.94213223
Element set:     62 
Inclination:       64.5561 deg
RA of node:        98.1324 deg
Eccentricity:    0.0007997
Arg of perigee:   337.0117 deg
Mean anomaly:      23.0632 deg
Mean motion:   14.77613920 rev/day
Decay rate:    9.2529E-005 rev/day^2
Epoch rev:             450
Checksum:              273

Satellite: NOAA 9
Catalog number: 15427
Epoch time:      100335.85266196
Element set:     688 
Inclination:       98.7679 deg
RA of node:        46.3051 deg
Eccentricity:    0.0015257
Arg of perigee:    13.2476 deg
Mean anomaly:     346.9094 deg
Mean motion:   14.14402976 rev/day
Decay rate:    8.5100E-006 rev/day^2
Epoch rev:           82365
Checksum:              337

Satellite: NOAA 10
Catalog number: 16969
Epoch time:      100349.92964479
Element set:     680 
Inclination:       98.6584 deg
RA of node:       333.1709 deg
Eccentricity:    0.0011692
Arg of perigee:   245.8471 deg
Mean anomaly:     114.1486 deg
Mean motion:   14.26058319 rev/day
Decay rate:    3.9800E-006 rev/day^2
Epoch rev:           74046
Checksum:              347

Satellite: NOAA 11
Catalog number: 19531
Epoch time:      100349.90722737
Element set:     522 
Inclination:       98.9842 deg
RA of node:        54.9888 deg
Eccentricity:    0.0011426
Arg of perigee:   300.4397 deg
Mean anomaly:      59.5633 deg
Mean motion:   14.13797751 rev/day
Decay rate:    2.5199E-006 rev/day^2
Epoch rev:           63034
Checksum:              337

Satellite: NOAA 12
Catalog number: 21263
Epoch time:      100355.89335317
Element set:     975 
Inclination:       98.5604 deg
RA of node:       346.6738 deg
Eccentricity:    0.0012741
Arg of perigee:   157.4409 deg
Mean anomaly:     202.7338 deg
Mean motion:   14.23792485 rev/day
Decay rate:    3.8299E-006 rev/day^2
Epoch rev:           49879
Checksum:              356

Satellite: NOAA 13
Catalog number: 22739
Epoch time:      100336.04119143
Element set:     350 
Inclination:       99.2092 deg
RA of node:       342.0743 deg
Eccentricity:    0.0009825
Arg of perigee:   347.7826 deg
Mean anomaly:      12.3104 deg
Mean motion:   14.11474530 rev/day
Decay rate:    6.0100E-006 rev/day^2
Epoch rev:           37663
Checksum:              380

Satellite: NOAA 14
Catalog number: 23455
Epoch time:      100355.90608030
Element set:     564 
Inclination:       99.1623 deg
RA of node:       338.1811 deg
Eccentricity:    0.0008919
Arg of perigee:   291.1100 deg
Mean anomaly:      68.9118 deg
Mean motion:   14.12533808 rev/day
Decay rate:    3.0700E-006 rev/day^2
Epoch rev:           30796
Checksum:              399

Satellite: NOAA 15
Catalog number: 25338
Epoch time:      100355.74197956
Element set:     18 
Inclination:       98.6193 deg
RA of node:        20.8702 deg
Eccentricity:    0.0011618
Arg of perigee:    93.1546 deg
Mean anomaly:     267.0961 deg
Mean motion:   14.23432651 rev/day
Decay rate:    2.4500E-006 rev/day^2
Epoch rev:           13540
Checksum:              297

Satellite: NOAA 16
Catalog number: 26536
Epoch time:      100354.47458394
Element set:     115 
Inclination:       98.8052 deg
RA of node:       297.4165 deg
Eccentricity:    0.0011360
Arg of perigee:    26.6749 deg
Mean anomaly:     333.5519 deg
Mean motion:   14.10998417 rev/day
Decay rate:    2.7900E-006 rev/day^2
Epoch rev:            1255
Checksum:              321

Satellite: METEOR 2-16
Catalog number: 18312
Epoch time:      100334.93219369
Element set:     872 
Inclination:       82.5550 deg
RA of node:       141.6566 deg
Eccentricity:    0.0012451
Arg of perigee:   340.6184 deg
Mean anomaly:      19.4499 deg
Mean motion:   13.84264960 rev/day
Decay rate:    1.7800E-006 rev/day^2
Epoch rev:           67121
Checksum:              313

Satellite: METEOR 2-17
Catalog number: 18820
Epoch time:      100335.67547758
Element set:     381 
Inclination:       82.5441 deg
RA of node:       192.3102 deg
Eccentricity:    0.0017594
Arg of perigee:    37.6240 deg
Mean anomaly:     322.6155 deg
Mean motion:   13.84923695 rev/day
Decay rate:    3.1899E-006 rev/day^2
Epoch rev:           64877
Checksum:              342

